When you browse on this site, cookies collect data to enhance your experience and personalize the content and advertising you see.
Visit our Privacy Policy to learn more. By continuing to use the site, you agree to this use of cookies and data.
  • In Lithuania
  • List of Countries
  • For 7 days
  • Water Temperature
  • Satellite Maps
  • Weather Map
  • Weather Widgets
  • user-avatar
    Login

    Hourly Weather Mayrhofen

    Today, 26 June, Wednesday

    Time Temperature Precipitation Wind Pressure Humidity
    00:00 +14°C° 0 mm 1 mps 626 mmHg 74%
    01:00 +14°C° 0 mm 1 mps 626 mmHg 72%
    02:00 +13°C° 0 mm 1 mps 625 mmHg 71%
    03:00 +13°C° 0 mm 1 mps 625 mmHg 70%
    04:00 +13°C° 0 mm 1 mps 625 mmHg 69%
    05:00 +16°C° 0 mm 1 mps 626 mmHg 62%
    06:00 +19°C° 0 mm 1 mps 627 mmHg 55%
    07:00 +23°C° 0 mm 1 mps 629 mmHg 48%
    08:00 +24°C° 0 mm 1 mps 629 mmHg 41%
    09:00 +26°C° 0 mm 1 mps 630 mmHg 34%
    10:00 +28°C° 0 mm 2 mps 630 mmHg 28%
    11:00 +28°C° 0 mm 2 mps 631 mmHg 26%
    12:00 +29°C° 0 mm 2 mps 631 mmHg 25%
    13:00 +30°C° 0 mm 2 mps 631 mmHg 24%
    14:00 +29°C° 0 mm 3 mps 631 mmHg 25%
    15:00 +29°C° 0 mm 3 mps 630 mmHg 27%
    16:00 +29°C° 0 mm 3 mps 630 mmHg 29%
    17:00 +27°C° 0 mm 2 mps 630 mmHg 39%
    18:00 +25°C° 0 mm 2 mps 629 mmHg 49%
    19:00 +24°C° 0 mm 1 mps 628 mmHg 59%
    20:00 +21°C° 0 mm 1 mps 628 mmHg 63%
    21:00 +19°C° 0 mm 1 mps 627 mmHg 67%
    22:00 +16°C° 0 mm 1 mps 626 mmHg 71%
    23:00 +15°C° 0 mm 1 mps 626 mmHg 70%

    Tomorrow, 27 June, Thursday

    Time Temperature Precipitation Wind Pressure Humidity
    00:00 +15°C° 0 mm 1 mps 626 mmHg 69%
    01:00 +15°C° 0 mm 1 mps 626 mmHg 69%
    02:00 +14°C° 0 mm 1 mps 626 mmHg 68%
    03:00 +14°C° 0 mm 1 mps 625 mmHg 66%
    04:00 +14°C° 0 mm 1 mps 625 mmHg 65%
    05:00 +16°C° 0 mm 1 mps 626 mmHg 61%
    06:00 +20°C° 0 mm 1 mps 627 mmHg 56%
    07:00 +22°C° 0 mm 1 mps 628 mmHg 52%
    08:00 +24°C° 0 mm 1 mps 628 mmHg 45%
    09:00 +26°C° 0 mm 2 mps 629 mmHg 39%
    10:00 +28°C° 0 mm 2 mps 629 mmHg 33%
    11:00 +28°C° 0 mm 2 mps 629 mmHg 32%
    12:00 +28°C° 0 mm 3 mps 629 mmHg 30%
    13:00 +29°C° 0 mm 3 mps 629 mmHg 29%
    14:00 +28°C° 0 mm 4 mps 628 mmHg 33%
    15:00 +27°C° 0 mm 4 mps 628 mmHg 37%
    16:00 +27°C° 0 mm 4 mps 627 mmHg 42%
    17:00 +25°C° 0.1 mm 4 mps 627 mmHg 50%
    18:00 +22°C° 0.1 mm 3 mps 626 mmHg 59%
    19:00 +21°C° 0.1 mm 2 mps 625 mmHg 67%
    20:00 +19°C° 0.1 mm 2 mps 625 mmHg 74%
    21:00 +16°C° 0.1 mm 2 mps 624 mmHg 81%
    22:00 +14°C° 0.1 mm 1 mps 624 mmHg 88%
    23:00 +14°C° 0 mm 1 mps 623 mmHg 90%

    Day after tomorrow, 28 June, Friday

    Time Temperature Precipitation Wind Pressure Humidity
    00:00 +13°C° 0 mm 1 mps 623 mmHg 92%
    01:00 +13°C° 0 mm 1 mps 623 mmHg 93%
    02:00 +13°C° 0 mm 1 mps 623 mmHg 94%
    03:00 +13°C° 0 mm 1 mps 623 mmHg 94%
    04:00 +12°C° 0 mm 1 mps 623 mmHg 95%
    05:00 +14°C° 0 mm 1 mps 623 mmHg 91%
    06:00 +15°C° 0 mm 1 mps 623 mmHg 88%
    07:00 +18°C° 0 mm 1 mps 624 mmHg 84%
    08:00 +18°C° 0 mm 2 mps 624 mmHg 75%
    09:00 +20°C° 0 mm 2 mps 625 mmHg 66%
    10:00 +21°C° 0 mm 2 mps 625 mmHg 57%
    11:00 +23°C° 0 mm 2 mps 625 mmHg 53%
    12:00 +24°C° 0 mm 3 mps 625 mmHg 49%
    13:00 +25°C° 0 mm 3 mps 625 mmHg 44%
    14:00 +24°C° 0 mm 3 mps 625 mmHg 45%
    15:00 +24°C° 0 mm 3 mps 625 mmHg 46%
    16:00 +24°C° 0 mm 3 mps 625 mmHg 46%
    17:00 +21°C° 0 mm 3 mps 624 mmHg 53%
    18:00 +20°C° 0 mm 3 mps 624 mmHg 59%
    19:00 +18°C° 0 mm 2 mps 623 mmHg 65%
    20:00 +16°C° 0 mm 2 mps 623 mmHg 73%
    21:00 +14°C° 0 mm 1 mps 622 mmHg 80%
    22:00 +11°C° 0 mm 1 mps 622 mmHg 88%
    23:00 +11°C° 0 mm 1 mps 621 mmHg 88%

    29 June, Saturday

    Time Temperature Precipitation Wind Pressure Humidity
    00:00 +10°C° 0 mm 1 mps 621 mmHg 88%
    01:00 +10°C° 0 mm 1 mps 621 mmHg 88%
    02:00 +9°C° 0 mm 0 mps 621 mmHg 86%
    03:00 +8°C° 0 mm 0 mps 620 mmHg 85%
    04:00 +8°C° 0 mm 0 mps 620 mmHg 84%
    05:00 +11°C° 0 mm 0 mps 621 mmHg 75%
    06:00 +13°C° 0 mm 0 mps 622 mmHg 67%
    07:00 +16°C° 0 mm 0 mps 623 mmHg 58%
    08:00 +18°C° 0 mm 0 mps 624 mmHg 52%
    09:00 +22°C° 0 mm 1 mps 625 mmHg 45%
    10:00 +24°C° 0 mm 1 mps 625 mmHg 38%
    11:00 +24°C° 0 mm 1 mps 625 mmHg 35%
    12:00 +25°C° 0 mm 1 mps 626 mmHg 33%
    13:00 +26°C° 0 mm 1 mps 626 mmHg 30%
    14:00 +26°C° 0 mm 1 mps 626 mmHg 32%
    15:00 +26°C° 0 mm 2 mps 626 mmHg 33%
    16:00 +26°C° 0 mm 2 mps 625 mmHg 35%
    17:00 +25°C° 0 mm 2 mps 625 mmHg 45%
    18:00 +23°C° 0 mm 1 mps 625 mmHg 56%
    19:00 +21°C° 0 mm 1 mps 624 mmHg 66%
    20:00 +19°C° 0 mm 1 mps 623 mmHg 73%
    21:00 +16°C° 0 mm 1 mps 623 mmHg 79%
    22:00 +14°C° 0 mm 1 mps 622 mmHg 86%
    23:00 +14°C° 0 mm 1 mps 622 mmHg 88%

    30 June, Sunday

    Time Temperature Precipitation Wind Pressure Humidity
    00:00 +14°C° 0 mm 1 mps 622 mmHg 90%
    01:00 +14°C° 0 mm 1 mps 622 mmHg 93%
    02:00 +14°C° 0 mm 1 mps 622 mmHg 92%
    03:00 +13°C° 0 mm 1 mps 622 mmHg 92%
    04:00 +13°C° 0 mm 1 mps 622 mmHg 91%
    05:00 +15°C° 0 mm 1 mps 622 mmHg 84%
    06:00 +18°C° 0 mm 1 mps 623 mmHg 77%
    07:00 +18°C° 0 mm 0 mps 624 mmHg 70%
    08:00 +22°C° 0 mm 1 mps 625 mmHg 60%
    09:00 +24°C° 0 mm 1 mps 626 mmHg 50%
    10:00 +26°C° 0 mm 1 mps 626 mmHg 40%
    11:00 +27°C° 0 mm 1 mps 627 mmHg 36%
    12:00 +28°C° 0 mm 2 mps 627 mmHg 32%
    13:00 +28°C° 0 mm 2 mps 627 mmHg 28%
    14:00 +28°C° 0 mm 2 mps 627 mmHg 29%
    15:00 +28°C° 0 mm 2 mps 627 mmHg 30%
    16:00 +27°C° 0 mm 3 mps 626 mmHg 31%
    17:00 +26°C° 0 mm 2 mps 626 mmHg 41%
    18:00 +24°C° 0 mm 2 mps 625 mmHg 51%
    19:00 +21°C° 0 mm 2 mps 625 mmHg 61%
    20:00 +20°C° 0 mm 1 mps 624 mmHg 66%
    21:00 +18°C° 0 mm 1 mps 624 mmHg 71%
    22:00 +14°C° 0 mm 1 mps 623 mmHg 75%
    23:00 +14°C° 0 mm 1 mps 623 mmHg 75%

    1 July, Monday

    Time Temperature Precipitation Wind Pressure Humidity
    00:00 +13°C° 0 mm 1 mps 623 mmHg 75%
    01:00 +13°C° 0 mm 1 mps 622 mmHg 74%
    02:00 +13°C° 0 mm 1 mps 622 mmHg 73%
    03:00 +13°C° 0 mm 1 mps 622 mmHg 72%
    04:00 +13°C° 0 mm 1 mps 621 mmHg 70%
    05:00 +15°C° 0 mm 1 mps 622 mmHg 64%
    06:00 +19°C° 0 mm 1 mps 623 mmHg 59%
    07:00 +21°C° 0 mm 1 mps 624 mmHg 53%
    08:00 +23°C° 0 mm 1 mps 625 mmHg 47%
    09:00 +25°C° 0 mm 1 mps 625 mmHg 41%
    10:00 +27°C° 0 mm 1 mps 626 mmHg 34%
    11:00 +27°C° 0 mm 1 mps 626 mmHg 33%
    12:00 +27°C° 0 mm 1 mps 626 mmHg 32%
    13:00 +28°C° 0 mm 1 mps 626 mmHg 31%
    14:00 +24°C° 1.8 mm 1 mps 624 mmHg 47%
    15:00 +20°C° 1.8 mm 1 mps 622 mmHg 63%
    16:00 +16°C° 1.8 mm 1 mps 620 mmHg 79%
    17:00 +16°C° 1.3 mm 1 mps 621 mmHg 81%
    18:00 +16°C° 1.3 mm 1 mps 622 mmHg 82%
    19:00 +16°C° 1.3 mm 1 mps 622 mmHg 84%
    20:00 +15°C° 1.6 mm 1 mps 622 mmHg 86%
    21:00 +14°C° 1.6 mm 2 mps 622 mmHg 89%
    22:00 +13°C° 1.6 mm 2 mps 622 mmHg 92%
    23:00 +13°C° 0 mm 2 mps 621 mmHg 90%
    Show more